Location: Unspecified
(48.2082°N, 0.0000°E)
Time: 00:27:51
(UTC+00:00)

A-11 Canister half - Pass Details

Date: 22 June 2019
Orbit: 1514 x 1685 km, 47.2° (Epoch: 22 July)

Event Time Altitude Azimuth Distance (km) Brightness Sun altitude
Rises 15:36:39 0° 286° (WNW) 4,817 12.3 41.2°
Reaches altitude 10° 15:39:49 10° 283° (WNW) 3,806 12.1 40.7°
Maximum altitude 15:49:14 62° 206° (SSW) 1,711 10.2 39.1°
Drops below altitude 10° 15:58:21 10° 129° (SE) 3,686 10.8 37.6°
Sets 16:01:23 0° 126° (SE) 4,656 11.2 37.1°
